Weather History for Stanton, MN

Change the Weather History Date:

Saturday, November 2, 2013

  Actual Average (KLVN) Record (KLVN)
Temperature  
Mean Temperature 39 °F -  
Max Temperature 49 °F 48 °F 72 °F (1978)
Min Temperature 29 °F 31 °F 7 °F (1951)
Degree Days  
Heating Degree Days 26    
Moisture  
Dew Point 30 °F    
Average Humidity 72    
Maximum Humidity 90    
Minimum Humidity 43    
Precipitation  
Precipitation 0.00 in - - ()
Sea Level Pressure  
Sea Level Pressure 30.00 in    
Wind  
Wind Speed 5 mph (WNW)    
Max Wind Speed 13 mph    
Max Gust Speed 16 mph    
Visibility 10 miles    
Events      
Averages and records for this station are not official NWS values.
T = Trace of Precipitation, MM = Missing Value Source: NWS Daily Summary

Daily Weather History Graph

Daily Weather History Graph

Search for Another Location

Airport:

Trip Planner

Search our weather history database for the weather conditions in past years. The results will help you decide how hot, cold, wet, or windy it might be!

Date:

Astronomy

Nov. 02, 2013 Rise Set
Actual Time 7:51 AM CDT 5:59 PM CDT
Civil Twilight 7:20 AM CDT 6:29 PM CDT
Nautical Twilight 6:46 AM CDT 7:04 PM CDT
Astronomical Twilight 6:12 AM CDT 7:38 PM CDT
Moon 6:47 AM CDT (11/2) 5:32 PM CDT (11/2)
Length of Visible Light 11h 09m
Length of Day
10h 08m
Waning Crescent, 1% of the Moon is Illuminated
Nov 2
Waning Crescent
Nov 3
New
Nov 9
First Quarter
Nov 17
Full
Nov 25
Last Quarter

Hourly Weather History & Observations

Time (CDT) Temp. Windchill Dew Point Humidity Pressure Visibility Wind Dir Wind Speed Gust Speed Precip Events Conditions
12:12 AM 33.6 °F 30.6 °F 29.7 °F 85% 29.85 in 10.0 mi WSW 3.5 mph - N/A   Scattered Clouds
12:32 AM 33.1 °F - 30.2 °F 89% 29.85 in 10.0 mi Calm Calm - N/A   Scattered Clouds
12:52 AM 35.1 °F 32.2 °F 30.9 °F 85% 29.86 in 10.0 mi West 3.5 mph - N/A   Mostly Cloudy
1:11 AM 36.7 °F 34.1 °F 32.0 °F 83% 29.86 in 10.0 mi West 3.5 mph - N/A   Overcast
1:32 AM 38.1 °F 35.7 °F 32.5 °F 80% 29.86 in 10.0 mi West 3.5 mph - N/A   Overcast
1:52 AM 38.7 °F - 32.9 °F 80% 29.87 in 10.0 mi Calm Calm - N/A   Overcast
2:11 AM 38.7 °F - 33.4 °F 81% 29.88 in 10.0 mi Calm Calm - N/A   Overcast
2:32 AM 38.8 °F 35.4 °F 34.2 °F 83% 29.88 in 10.0 mi West 4.6 mph - N/A   Overcast
2:52 AM 40.1 °F 34.7 °F 34.9 °F 82% 29.88 in 10.0 mi West 8.1 mph - N/A   Overcast
3:11 AM 40.1 °F 33.6 °F 35.6 °F 84% 29.88 in 10.0 mi WNW 10.4 mph - N/A   Overcast
3:32 AM 41.0 °F 33.9 °F 35.1 °F 79% 29.88 in 10.0 mi NW 12.7 mph - N/A   Overcast
3:52 AM 40.8 °F 34.5 °F 34.3 °F 78% 29.89 in 10.0 mi WNW 10.4 mph - N/A   Overcast
4:12 AM 39.4 °F 32.7 °F 31.8 °F 74% 29.90 in 10.0 mi NW 10.4 mph 16.1 mph N/A   Scattered Clouds
4:32 AM 38.3 °F 30.9 °F 30.2 °F 73% 29.91 in 10.0 mi NW 11.5 mph - N/A   Clear
4:51 AM 37.4 °F 31.4 °F 30.2 °F 75% 29.92 in 10.0 mi NW 8.1 mph - N/A   Clear
5:12 AM 36.5 °F 30.3 °F 30.0 °F 77% 29.93 in 10.0 mi NW 8.1 mph - N/A   Clear
5:32 AM 36.7 °F 32.9 °F 30.2 °F 77% 29.93 in 10.0 mi NW 4.6 mph - N/A   Mostly Cloudy
5:51 AM 35.4 °F 32.6 °F 29.3 °F 78% 29.94 in 10.0 mi WNW 3.5 mph - N/A   Mostly Cloudy
6:12 AM 35.6 °F 32.8 °F 30.0 °F 80% 29.95 in 10.0 mi West 3.5 mph - N/A   Overcast
6:32 AM 36.3 °F 31.6 °F 30.6 °F 80% 29.95 in 10.0 mi WNW 5.8 mph - N/A   Overcast
6:51 AM 36.5 °F 31.8 °F 30.7 °F 80% 29.96 in 10.0 mi WNW 5.8 mph - N/A   Overcast
7:12 AM 35.6 °F 31.7 °F 30.2 °F 81% 29.97 in 10.0 mi West 4.6 mph - N/A   Mostly Cloudy
7:31 AM 33.6 °F 28.4 °F 29.3 °F 84% 29.97 in 10.0 mi WNW 5.8 mph - N/A   Scattered Clouds
7:52 AM 33.1 °F 26.9 °F 29.3 °F 86% 29.98 in 10.0 mi West 6.9 mph - N/A   Clear
8:12 AM 32.4 °F 26.9 °F 29.3 °F 88% 29.99 in 10.0 mi West 5.8 mph - N/A   Clear
8:31 AM 32.9 °F 29.8 °F 30.0 °F 89% 30.00 in 10.0 mi West 3.5 mph - N/A   Clear
8:52 AM 34.5 °F 30.4 °F 30.9 °F 87% 30.01 in 10.0 mi West 4.6 mph - N/A   Clear
9:12 AM 35.8 °F 30.1 °F 31.6 °F 85% 30.01 in 10.0 mi WNW 6.9 mph - N/A   Clear
9:31 AM 37.2 °F 31.9 °F 31.6 °F 80% 30.02 in 10.0 mi NW 6.9 mph - N/A   Clear
9:52 AM 38.5 °F 31.6 °F 30.7 °F 74% 30.02 in 10.0 mi NNW 10.4 mph - N/A   Clear
10:12 AM 39.7 °F 33.7 °F 30.6 °F 70% 30.03 in 10.0 mi NNW 9.2 mph - N/A   Clear
10:32 AM 41.2 °F 36.6 °F 30.6 °F 66% 30.03 in 10.0 mi NNW 6.9 mph - N/A   Clear
10:52 AM 41.7 °F 36.1 °F 29.7 °F 62% 30.03 in 10.0 mi NW 9.2 mph - N/A   Clear
11:12 AM 42.3 °F 39.4 °F 29.8 °F 61% 30.04 in 10.0 mi NW 4.6 mph - N/A   Clear
11:32 AM 43.0 °F 37.7 °F 30.0 °F 60% 30.04 in 10.0 mi NW 9.2 mph - N/A   Clear
11:52 AM 43.7 °F 39.7 °F 29.7 °F 58% 30.05 in 10.0 mi NW 6.9 mph - N/A   Clear
12:12 PM 44.4 °F 40.0 °F 29.8 °F 57% 30.06 in 10.0 mi NNW 8.1 mph - N/A   Clear
12:32 PM 44.8 °F 41.0 °F 29.5 °F 55% 30.06 in 10.0 mi WNW 6.9 mph - N/A   Clear
12:52 PM 45.7 °F 41.0 °F 29.8 °F 54% 30.06 in 10.0 mi WNW 9.2 mph - N/A   Clear
1:11 PM 46.8 °F - 31.1 °F 55% 30.06 in 10.0 mi WNW 11.5 mph - N/A   Clear
1:32 PM 46.9 °F - 31.3 °F 55% 30.05 in 10.0 mi West 5.8 mph 9.2 mph N/A   Clear
1:52 PM 47.1 °F - 29.8 °F 51% 30.04 in 10.0 mi WNW 5.8 mph - N/A   Clear
2:11 PM 48.0 °F - 29.8 °F 49% 30.04 in 10.0 mi West 8.1 mph - N/A   Clear
2:32 PM 48.2 °F - 28.2 °F 46% 30.04 in 10.0 mi West 6.9 mph - N/A   Clear
2:52 PM 49.1 °F - 28.6 °F 45% 30.04 in 10.0 mi WNW 9.2 mph - N/A   Clear
3:12 PM 49.1 °F - 27.5 °F 43% 30.04 in 10.0 mi NW 8.1 mph - N/A   Clear
3:32 PM 49.5 °F - 27.5 °F 43% 30.05 in 10.0 mi WNW 10.4 mph - N/A   Clear
3:52 PM 49.3 °F - 27.3 °F 43% 30.05 in 10.0 mi WNW 8.1 mph - N/A   Clear
4:12 PM 49.1 °F - 27.9 °F 44% 30.05 in 10.0 mi WNW 5.8 mph - N/A   Clear
4:32 PM 49.1 °F - 28.6 °F 45% 30.05 in 10.0 mi NW 6.9 mph - N/A   Clear
4:52 PM 48.4 °F - 28.8 °F 47% 30.06 in 10.0 mi WNW 8.1 mph - N/A   Clear
5:12 PM 47.5 °F - 29.3 °F 49% 30.06 in 10.0 mi WNW 8.1 mph - N/A   Clear
5:32 PM 46.2 °F 44.1 °F 30.2 °F 54% 30.07 in 10.0 mi WNW 4.6 mph - N/A   Clear
5:51 PM 45.5 °F - 29.1 °F 53% 30.07 in 10.0 mi Calm Calm - N/A   Clear
6:12 PM 44.6 °F - 29.3 °F 55% 30.07 in 10.0 mi Calm Calm - N/A   Clear
6:32 PM 42.1 °F - 29.3 °F 61% 30.07 in 10.0 mi Calm Calm - N/A   Clear
6:52 PM 39.4 °F 37.2 °F 29.3 °F 67% 30.07 in 10.0 mi South 3.5 mph - N/A   Clear
7:12 PM 35.6 °F - 29.1 °F 77% 30.07 in 10.0 mi Calm Calm - N/A   Clear
7:32 PM 35.6 °F - 29.5 °F 78% 30.08 in 10.0 mi Calm Calm - N/A   Clear
7:52 PM 34.0 °F 31.0 °F 29.3 °F 83% 30.07 in 10.0 mi South 3.5 mph - N/A   Clear
8:12 PM 32.0 °F - 28.2 °F 86% 30.08 in 10.0 mi Calm Calm - N/A   Clear
8:31 PM 32.4 °F - 28.4 °F 85% 30.07 in 10.0 mi Calm Calm - N/A   Clear
8:52 PM 31.1 °F - 27.3 °F 86% 30.07 in 10.0 mi Calm Calm - N/A   Clear
9:12 PM 30.9 °F 26.2 °F 27.9 °F 88% 30.07 in 10.0 mi SSW 4.6 mph - N/A   Clear
9:31 PM 30.7 °F 26.0 °F 27.1 °F 86% 30.07 in 10.0 mi SSW 4.6 mph - N/A   Clear
9:52 PM 29.8 °F - 26.4 °F 87% 30.08 in 10.0 mi Calm Calm - N/A   Clear
10:12 PM 30.7 °F - 27.7 °F 88% 30.08 in 10.0 mi Calm Calm - N/A   Clear
10:31 PM 31.8 °F - 28.0 °F 86% 30.08 in 10.0 mi Calm Calm - N/A   Clear
10:52 PM 30.7 °F - 27.1 °F 86% 30.08 in 10.0 mi Calm Calm - N/A   Clear
11:11 PM 30.2 °F 25.4 °F 27.5 °F 90% 30.09 in 10.0 mi SW 4.6 mph - N/A   Clear
11:32 PM 30.4 °F - 27.3 °F 88% 30.08 in 10.0 mi Calm Calm - N/A   Clear
11:52 PM 29.7 °F - 26.4 °F 88% 30.09 in 10.0 mi Calm Calm - N/A   Clear